Weather History for Ft Lauderdale, FL

Change the Weather History Date:

Wednesday, December 5, 2012

  Actual Average Record
Temperature  
Mean Temperature 75 °F 73 °F  
Max Temperature 79 °F 79 °F 87 °F (1978)
Min Temperature 70 °F 66 °F 40 °F (1957)
Degree Days  
Heating Degree Days 0 0  
Month to date heating degree days 0 0  
Since 1 July heating degree days 2  
Cooling Degree Days 10 8  
Month to date cooling degree days 51 41  
Year to date cooling degree days 4406 4554  
Growing Degree Days 24 (Base 50)    
Moisture  
Dew Point 62 °F    
Average Humidity 67    
Maximum Humidity 79    
Minimum Humidity 54    
Precipitation  
Precipitation 0.00 in 0.09 in 1.46 in (1985)
Month to date precipitation 0.05 0.41  
Year to date precipitation 60.17 60.13  
Snow  
Snow 0.00 in - - ()
Month to date snowfall 0.0  
Since 1 July snowfall 0.0  
Snow Depth 0.00 in    
Sea Level Pressure  
Sea Level Pressure 30.08 in    
Wind  
Wind Speed 9 mph (ESE)    
Max Wind Speed 17 mph    
Max Gust Speed 23 mph    
Visibility 10 miles    
Events      
T = Trace of Precipitation, MM = Missing Value Source: NWS Daily Summary

Daily Weather History Graph

Daily Weather History Graph

Search for Another Location

Airport:

Trip Planner

Search our weather history database for the weather conditions in past years. The results will help you decide how hot, cold, wet, or windy it might be!

Date:

Astronomy

Dec. 05, 2012 Rise Set
Actual Time 6:53 AM EST 5:28 PM EST
Civil Twilight 6:28 AM EST 5:54 PM EST
Nautical Twilight 6:00 AM EST 6:22 PM EST
Astronomical Twilight 5:32 AM EST 6:50 PM EST
Moon 11:48 PM EST (12/5) 11:42 AM EST (12/5)
Length of Visible Light 11h 25m
Length of Day
10h 34m
Waning Gibbous, 60% of the Moon is Illuminated
Dec 5
Waning Gibbous
Dec 6
Last Quarter
Dec 13
New
Dec 20
First Quarter
Dec 28
Full

Hourly Weather History & Observations

Time (EST) Temp. Dew Point Humidity Pressure Visibility Wind Dir Wind Speed Gust Speed Precip Events Conditions
12:53 AM 73.0 °F 63.0 °F 71% 30.14 in 10.0 mi East 10.4 mph - 0.00 in   Mostly Cloudy
1:53 AM 72.0 °F 60.1 °F 66% 30.13 in 10.0 mi ESE 9.2 mph - N/A   Scattered Clouds
2:53 AM 72.0 °F 62.1 °F 71% 30.12 in 10.0 mi ESE 6.9 mph - N/A   Partly Cloudy
3:53 AM 72.0 °F 62.1 °F 71% 30.10 in 10.0 mi ESE 8.1 mph - N/A   Scattered Clouds
4:53 AM 72.0 °F 64.0 °F 76% 30.10 in 10.0 mi East 12.7 mph - N/A   Scattered Clouds
5:53 AM 70.0 °F 63.0 °F 78% 30.10 in 10.0 mi SE 6.9 mph - N/A   Scattered Clouds
6:53 AM 72.0 °F 61.0 °F 68% 30.11 in 10.0 mi ESE 6.9 mph - N/A   Scattered Clouds
7:53 AM 73.9 °F 60.1 °F 62% 30.13 in 10.0 mi ESE 9.2 mph - N/A   Overcast
9:53 AM 75.9 °F 62.1 °F 62% 30.14 in 10.0 mi ESE 8.1 mph - N/A   Mostly Cloudy
10:53 AM 78.1 °F 60.1 °F 54% 30.13 in 10.0 mi ESE 10.4 mph 18.4 mph N/A   Scattered Clouds
11:53 AM 78.1 °F 60.1 °F 54% 30.11 in 10.0 mi ESE 10.4 mph - N/A   Scattered Clouds
12:53 PM 78.1 °F 60.1 °F 54% 30.09 in 10.0 mi East 10.4 mph - N/A   Scattered Clouds
1:53 PM 78.1 °F 62.1 °F 58% 30.06 in 10.0 mi East 8.1 mph - N/A   Partly Cloudy
2:53 PM 78.1 °F 63.0 °F 60% 30.04 in 10.0 mi ESE 12.7 mph - N/A   Scattered Clouds
3:53 PM 77.0 °F 62.1 °F 60% 30.04 in 10.0 mi East 9.2 mph - N/A   Partly Cloudy
4:53 PM 75.0 °F 62.1 °F 64% 30.03 in 10.0 mi East 11.5 mph - N/A   Partly Cloudy
5:53 PM 73.9 °F 62.1 °F 66% 30.04 in 10.0 mi East 5.8 mph - N/A   Partly Cloudy
6:53 PM 73.0 °F 62.1 °F 68% 30.03 in 10.0 mi ESE 5.8 mph - N/A   Scattered Clouds
7:53 PM 73.9 °F 61.0 °F 64% 30.04 in 10.0 mi East 6.9 mph - N/A   Scattered Clouds
8:53 PM 73.9 °F 62.1 °F 66% 30.04 in 10.0 mi East 9.2 mph - N/A   Partly Cloudy
9:53 PM 75.0 °F 63.0 °F 66% 30.03 in 10.0 mi East 8.1 mph - N/A   Partly Cloudy
10:53 PM 75.0 °F 64.9 °F 71% 30.02 in 10.0 mi East 9.2 mph - N/A   Mostly Cloudy
11:53 PM 73.9 °F 64.9 °F 73% 30.02 in 10.0 mi ESE 8.1 mph 17.3 mph N/A   Mostly Cloudy